EHI
6 5 4 5 6 6 6 6 4 2 1 2 2 1 1 1 0 1 2 3 3 2 0 0 1 0 0 0 0 0 0 0 0 0 0 0 0 0 0 0 0 0 0
7 5 4 4 5 5 5 4 3 1 0 1 1 1 1 1 1 1 2 3 3 2 0 0 1 1 1 0 0 0 0 0 0 0 0 0 0 0 0 0 0 0 0
4 4 3 2 2 3 3 2 2 1 0 0 0 0 0 1 2 2 2 2 3 2 1 0 1 2 2 1 0 0 0 0 0 0 0 0 0 0 0 0 0 0 0
3 2 1 1 2 2 2 2 2 1 0 0 0 0 0 1 2 2 2 2 3 3 1 0 0 1 3 2 2 2 2 1 0 0 0 0 0 0 0 0 0 0 0
3 2 1 2 3 3 3 3 3 3 1 0 0 0 0 1 1 1 1 1 2 2 2 1 1 1 2 3 4 5 3 1 0 0 0 0 0 0 0 0 0 0 0
1 2 2 2 3 3 3 3 3 3 2 1 0 0 0 0 0 0 0 0 0 1 1 2 3 3 3 5 6 5 4 2 1 1 0 0 0 0 0 0 0 0 0
0 1 2 3 2 2 2 2 3 3 2 1 0 0 0 0 0 0 0 0 0 0 1 2 4 7 8 7 6 5 4 3 3 2 1 0 1 1 2 1 0 0 0
1 1 2 3 1 0 0 1 1 2 2 1 0 0 0 0 0 0 0 0 0 0 1 2 4 7 9 8 6 5 4 4 4 3 1 1 2 2 2 2 1 0 0
2 2 3 2 1 0 0 0 0 1 1 0 0 0 0 0 0 0 0 0 0 0 0 0 2 4 5 6 6 5 4 4 4 3 3 4 4 3 2 3 2 1 0
1 1 2 2 1 0 0 0 0 0 0 0 0 0 0 0 0 0 0 0 0 0 0 0 0 1 1 2 3 3 3 3 4 4 4 6 6 5 3 3 3 2 1
0 0 1 2 1 0 0 0 0 0 0 0 0 0 0 0 0 0 0 0 0 0 0 0 0 0 0 1 1 1 1 1 2 3 3 5 7 6 5 3 3 3 2
0 0 1 1 0 0 0 0 0 0 0 0 0 0 0 0 0 0 0 0 0 0 0 1 1 0 0 0 0 0 0 0 0 1 1 2 4 5 5 3 2 2 2
0 0 0 0 0 0 0 0 0 0 0 0 0 0 0 0 0 0 0 0 0 0 0 1 1 0 0 0 0 0 0 0 0 0 0 1 1 3 3 2 1 1 1
0 0 0 0 0 0 0 0 0 0 0 0 0 0 0 0 0 0 0 0 0 0 0 0 0 0 0 0 0 0 0 0 0 0 0 0 0 1 1 1 1 1 0
0 0 0 0 0 0 0 1 1 1 1 1 1 1 1 0 0 0 0 0 0 0 0 0 0 0 0 0 0 0 0 0 0 0 0 0 0 0 0 0 0 0 0
1 0 0 0 0 0 0 0 0 0 0 1 2 2 1 1 1 0 0 0 0 0 0 0 0 0 0 0 0 0 0 0 0 0 0 0 0 0 0 0 0 0 0
2 1 0 0 0 0 0 0 0 0 0 0 1 1 2 2 2 1 1 0 0 0 0 0 0 0 0 0 0 0 0 0 0 0 0 0 0 0 0 0 0 0 0
2 1 0 0 0 0 0 0 0 0 0 0 0 1 3 3 3 3 2 1 0 0 0 0 0 0 0 0 0 0 0 0 0 0 0 0 0 0 0 0 0 0 0
1 0 0 0 0 0 0 0 0 0 0 0 1 2 3 3 3 3 3 1 1 1 1 0 0 0 0 0 0 0 0 0 0 0 0 0 0 0 0 0 0 0 0
0 1 1 1 1 1 0 0 0 0 1 1 1 3 3 3 3 3 3 3 2 2 1 0 0 0 0 0 0 0 0 0 0 0 0 0 0 0 0 0 0 0 0
1 2 2 2 2 1 0 0 1 1 2 3 3 3 3 3 3 2 2 2 2 2 1 0 0 0 0 0 0 0 0 0 0 0 0 0 0 0 1 1 0 0 0
3 3 3 3 3 2 1 0 0 1 3 3 3 3 3 2 1 1 1 1 1 1 0 0 0 0 0 0 0 0 0 0 0 0 0 0 0 0 1 1 0 0 0
3 3 3 3 3 3 1 0 0 0 2 3 3 2 2 1 0 0 0 0 0 0 0 0 0 0 0 0 0 0 0 0 0 0 0 0 0 0 1 1 0 0 0
3 3 3 3 3 3 1 0 0 0 1 2 2 1 1 0 0 0 0 0 0 0 0 0 0 0 0 0 0 0 0 0 0 0 0 0 0 0 0 0 0 0 0
3 3 3 3 3 2 1 0 0 0 1 2 2 1 0 0 0 0 0 0 0 0 0 0 0 0 0 0 0 0 0 0 0 0 0 0 0 0 0 0 0 0 0
2 3 3 3 2 1 0 0 0 0 1 2 2 2 1 0 0 0 0 0 0 0 0 0 0 0 0 0 0 0 0 0 0 0 0 0 0 0 0 0 0 0 0
Wind_Speed
1 1 1 0 1 1 2 2 2 2 2 3 3 3 4 4 4 4 1 5 6 8 10 10 11 12 13 13 13 12 12 12 11 11 11 11 11 11 11 11 10 10 9
1 1 1 0 0 1 1 1 1 2 2 2 3 3 4 4 4 4 4 4 7 7 9 10 11 12 14 14 14 14 13 13 12 11 11 11 11 11 11 11 11 11 10
1 1 1 0 1 1 0 1 1 2 2 3 4 4 4 4 4 4 4 3 4 8 10 11 11 11 13 15 15 15 15 14 13 12 12 11 11 11 11 11 11 11 10
1 0 1 1 1 1 0 1 1 2 1 2 3 4 4 3 5 5 5 4 4 5 7 11 11 12 13 14 15 15 15 14 13 13 13 12 12 12 12 12 12 11 11
2 1 1 2 1 0 1 2 1 2 2 2 3 4 4 4 4 5 5 5 5 5 5 6 10 12 13 13 14 15 15 15 14 14 14 15 14 13 13 13 12 12 12
2 1 2 1 1 1 1 2 1 1 2 2 4 3 3 3 4 4 5 5 4 6 6 6 5 7 12 12 13 15 16 16 16 16 16 16 15 14 14 14 13 13 13
3 1 1 2 1 2 2 2 2 1 2 2 3 3 3 4 4 4 4 4 4 4 4 5 5 4 5 11 13 14 17 18 17 18 17 16 16 15 15 15 15 14 14
2 2 1 0 1 1 1 2 3 4 2 2 4 4 3 4 4 3 3 4 3 3 4 4 3 4 5 4 6 13 15 16 17 18 18 17 17 17 17 17 16 16 15
2 0 1 0 1 2 1 2 2 3 4 2 2 4 4 3 1 3 3 2 2 2 3 3 5 5 5 4 4 7 10 11 14 17 18 18 18 17 18 18 18 17 17
2 2 1 1 1 1 1 2 2 3 4 3 1 1 3 5 5 3 3 3 3 3 3 4 4 4 5 4 4 4 6 8 10 15 16 18 18 18 17 18 19 19 18
3 2 2 1 0 1 2 2 2 3 3 4 4 3 3 3 5 6 5 3 3 3 2 4 3 4 4 4 4 3 4 6 8 11 13 15 17 18 18 19 21 21 21
3 3 2 1 1 1 1 1 2 2 3 3 4 4 4 4 4 5 6 6 5 4 3 3 4 3 3 4 3 1 4 6 7 8 11 13 14 16 18 20 21 22 22
3 3 2 1 0 0 0 1 1 2 2 3 4 4 4 4 4 5 6 6 6 5 4 4 3 3 4 3 2 1 6 6 6 7 9 10 12 14 16 19 20 21 22
2 3 2 1 1 1 1 1 2 1 1 3 4 4 5 4 4 5 6 7 7 6 5 4 3 4 3 4 1 4 6 6 6 7 9 9 10 11 13 15 17 18 18
2 3 2 2 1 1 2 3 2 2 2 3 3 3 4 4 4 5 5 6 7 8 7 4 4 3 4 4 2 6 7 3 6 8 9 10 10 11 11 13 14 16 16
2 3 2 2 2 2 2 3 4 2 3 3 3 4 5 5 4 5 5 6 6 8 8 6 5 5 4 7 4 7 8 6 10 11 10 10 11 11 12 13 14 14 15
4 3 3 3 3 3 3 3 4 3 4 4 4 4 5 5 5 6 5 6 6 7 8 8 7 6 6 8 8 7 8 8 8 10 10 9 10 11 12 13 13 14 15
5 4 4 3 3 3 3 4 5 4 5 5 5 5 6 5 5 7 6 7 6 6 9 10 8 8 8 8 8 8 9 8 8 6 9 10 10 10 11 11 13 14 14
5 5 4 4 4 4 4 4 4 5 5 5 5 6 6 6 7 6 7 7 7 7 7 9 10 7 8 7 8 9 10 7 9 8 10 12 12 11 11 12 12 12 13
6 6 5 5 5 5 5 5 5 5 6 6 6 7 7 7 7 7 7 8 8 8 8 9 9 8 8 7 7 8 8 7 7 8 8 7 9 12 13 13 14 14 14
7 6 6 6 5 5 5 4 5 6 6 7 7 8 8 6 6 7 8 8 8 8 9 9 9 8 8 7 7 7 8 8 8 8 8 8 8 9 11 14 16 15 15
7 6 6 6 6 5 3 2 6 8 7 8 8 8 8 8 9 12 12 12 11 11 11 10 10 9 9 9 8 8 9 9 9 6 7 8 8 9 9 10 11 14 15
7 7 7 7 7 5 5 6 7 9 9 8 8 8 8 6 6 9 9 14 15 17 16 13 14 13 12 10 10 11 10 10 10 8 8 10 9 10 9 9 9 12 14
7 7 7 7 7 6 7 8 7 10 10 9 9 9 9 9 8 7 10 11 11 11 12 13 13 13 13 11 10 11 12 12 12 11 10 11 10 10 9 8 9 13 14
7 7 7 7 8 7 7 8 8 9 8 10 9 9 10 10 5 5 10 12 12 12 11 14 14 14 13 12 11 10 11 11 11 10 9 10 10 10 9 10 9 14 14
7 7 7 7 8 8 6 8 8 8 9 8 8 9 10 11 7 6 10 12 13 12 12 10 11 14 15 15 16 14 12 12 11 11 8 8 9 9 10 9 8 8 10
Wind_Direction
201 180 166 213 243 234 214 215 221 205 217 225 243 242 250 248 257 257 192 169 207 217 217 214 209 208 206 203 202 201 198 196 192 190 188 185 182 181 180 178 175 172 168
132 133 173 201 346 299 338 292 246 215 220 228 241 246 252 254 247 257 256 198 198 213 222 221 215 213 212 210 207 206 205 203 199 196 196 194 189 187 187 185 182 179 176
123 170 139 139 36 356 296 260 264 242 229 227 239 243 241 244 250 251 263 263 230 209 214 223 223 217 215 216 214 211 209 207 203 200 200 199 195 191 190 190 188 184 182
131 179 92 73 35 325 293 222 260 252 245 256 252 255 250 240 246 245 246 247 260 256 216 215 224 222 219 220 220 218 214 211 208 205 203 203 201 197 195 194 193 189 187
122 117 61 51 294 329 327 307 21 307 292 291 263 242 252 247 249 246 248 245 243 254 259 213 217 224 224 221 220 221 220 217 213 212 210 208 207 204 200 199 197 194 193
121 99 111 71 324 10 7 8 342 343 309 305 287 278 257 255 248 244 251 246 241 245 249 256 236 222 220 220 218 220 223 222 220 217 217 215 213 209 205 203 201 199 198
121 114 94 108 354 44 6 344 312 296 310 319 284 269 237 226 235 237 242 257 246 247 250 249 253 252 223 213 216 222 225 224 222 221 220 219 218 213 208 207 205 203 202
155 164 97 164 64 51 42 360 329 314 325 332 312 297 266 206 200 215 228 231 253 259 253 247 247 246 252 233 208 218 227 229 228 226 223 220 220 217 212 210 209 207 206
162 100 161 332 11 304 42 348 330 325 316 313 328 313 307 319 316 191 212 233 256 275 274 272 252 245 245 245 234 214 223 229 230 230 226 223 221 219 216 214 212 210 210
149 153 165 145 303 334 14 305 31 319 309 304 273 300 315 333 306 288 218 200 219 252 276 276 272 255 249 248 233 235 235 234 234 232 230 227 224 221 220 219 218 216 214
134 141 143 137 153 327 17 356 357 324 312 315 317 307 290 264 265 282 290 291 267 253 261 267 272 268 260 250 242 226 226 236 239 239 235 231 229 227 224 224 225 223 220
143 127 132 129 178 28 35 334 323 310 328 328 313 307 299 297 297 294 290 285 287 287 284 284 271 269 269 266 256 85 243 240 243 247 244 236 231 231 228 227 228 228 226
152 133 137 153 142 81 320 313 284 326 313 308 293 299 304 300 304 297 294 296 297 286 267 255 251 264 270 270 260 280 235 228 241 248 251 245 238 233 230 228 229 229 229
125 128 167 182 204 241 263 272 272 275 299 294 295 306 294 292 299 293 294 298 293 285 268 268 282 266 287 280 340 277 254 209 229 245 249 249 245 239 234 230 228 227 228
159 166 194 207 216 235 267 263 280 289 289 280 286 271 280 294 283 288 287 287 292 294 290 275 264 283 283 288 296 280 280 240 235 248 248 245 244 242 239 235 230 227 226
178 192 209 217 227 239 244 261 260 250 274 275 286 301 293 288 296 282 280 280 280 285 290 294 289 285 306 299 274 280 275 262 239 236 239 242 242 240 238 235 232 229 226
192 204 210 222 238 247 249 254 272 270 269 279 279 277 278 291 289 291 281 276 274 277 282 286 287 286 278 278 288 287 279 272 258 219 223 236 241 241 238 236 233 230 228
203 205 214 227 239 242 248 256 264 269 271 275 278 280 277 272 272 276 284 281 280 282 279 288 291 285 277 273 271 275 276 271 273 230 211 228 237 239 239 238 237 234 232
207 209 218 231 239 244 246 250 260 267 270 272 275 276 277 277 273 276 275 278 279 273 273 279 282 285 279 273 275 270 269 267 270 256 215 219 227 232 236 238 237 235 233
212 215 223 231 239 245 247 249 253 260 267 269 270 272 272 271 272 277 272 269 274 280 274 271 276 280 275 272 268 270 270 260 261 270 264 248 229 225 231 232 231 231 231
217 219 228 233 238 242 246 261 268 264 266 269 269 268 268 268 284 279 285 290 286 280 281 278 278 279 280 284 280 281 279 278 265 260 264 259 246 239 229 224 227 229 228
221 224 231 240 245 249 129 215 270 277 273 271 272 273 270 241 235 230 244 259 271 277 282 286 283 283 286 285 287 284 284 281 277 267 269 269 263 260 252 242 220 213 221
218 225 233 239 247 238 187 217 239 267 272 273 274 275 277 280 260 263 243 230 240 241 246 265 277 280 284 285 288 283 276 279 282 287 280 272 266 261 258 253 213 209 218
221 228 237 244 251 242 196 219 233 251 263 267 268 269 271 277 275 275 281 277 271 260 244 242 257 267 274 282 281 277 280 274 267 259 255 264 266 264 261 257 222 211 219
225 232 237 245 252 248 208 215 236 263 260 262 264 265 267 270 259 234 266 273 276 276 259 239 246 258 269 271 270 273 268 267 268 265 250 254 263 266 265 257 240 210 215
228 239 241 246 252 258 220 209 224 262 269 270 266 260 243 243 255 225 259 271 275 279 287 281 253 246 251 250 235 241 257 263 268 270 261 254 262 267 268 258 250 233 223